Regional Weather Roundup
Issued by NWS Glasgow, MT

Home | Current Version | Previous Version | Text Only | Print | Product List | Glossary On
Versions: 1 2 3 4 5 6 7 8 9 10 11 12 13 14 15 16 17 18 19 20 21 22 23 24 25 26 27
000
ASUS45 KGGW 161915
RWRGGW
HOURLY REGIONAL WEATHER ROUNDUP FOR NORTHEAST MONTANA
NATIONAL WEATHER SERVICE GLASGOW MONTANA
1200 PM MST MON JAN 16 2017

NOTE: "FAIR" INDICATES FEW OR NO CLOUDS BELOW 12,000 FEET WITH NO
SIGNIFICANT WEATHER AND/OR OBSTRUCTIONS TO VISISBILITY.

NORTHEAST MONTANA


CITY           SKY/WX    TMP DP  RH WIND       PRES   REMARKS
GLASGOW        SUNNY     13   6  74 CALM      30.11F
PLENTYWOOD       N/A     20  10  65 SW2         N/A
WOLF POINT     CLOUDY    16   8  71 SW9       30.15F
JORDAN           N/A     25  13  60 NW6       30.12F
WINNETT          N/A     25  12  58 E1          N/A
SIDNEY         SUNNY     14   8  77 S8        30.14F
GLENDIVE       SUNNY     17   6  62 S5        30.14F
MALTA            N/A     22  12  65 W2          N/A
SCOBEY           N/A     17   6  62 CALM      30.07F

FORT PECK REPORTS


CITY           SKY/WX    TMP DP  RH WIND       PRES   REMARKS
FORT PECK        N/A     22  15  75 S5          N/A
THE PINES        N/A     27  14  58 CALM        N/A

SOUTHEAST MONTANA


CITY           SKY/WX    TMP DP  RH WIND       PRES   REMARKS
BILLINGS       SUNNY     23   8  52 SW15      30.13F
MILES CITY     CLOUDY    12   4  70 SW6       30.15F
BAKER          CLOUDY    18   9  68 NW9       30.11F
LIVINGSTON     CLOUDY    19   6  57 NW20      30.13F

CENTRAL MONTANA


CITY           SKY/WX    TMP DP  RH WIND       PRES   REMARKS
HAVRE          CLOUDY    18  10  71 W12       30.09F
LEWISTOWN      CLOUDY    28  12  51 E5        30.07F
GREAT FALLS    CLOUDY    30  16  56 S18       30.06F
CUT BANK       SUNNY     34  20  56 S10       30.00F
HELENA         CLOUDY     2  -5  72 NE3       30.25F
BUTTE          CLOUDY     6  -1  73 CALM      30.21F
BOZEMAN        SUNNY      8   1  73 CALM      30.24S

WESTERN MONTANA


CITY           SKY/WX    TMP DP  RH WIND       PRES   REMARKS
MISSOULA       SUNNY      2  -1  88 CALM      30.41F
KALISPELL      NOT AVBL

NORTH DAKOTA


CITY           SKY/WX    TMP DP  RH WIND       PRES   REMARKS
WILLISTON      SUNNY     16   9  74 SW8       30.12F
DICKINSON      SUNNY     19  12  74 W13       30.05F
MINOT          SUNNY     27  20  75 W9        30.04F
BISMARCK       CLOUDY    23  11  60 NW7       30.07F

SOUTHERN SASKATCHEWAN


CITY           SKY/WX    TMP DP  RH WIND       PRES   REMARKS
REGINA         MOSUNNY   21  16  79 S5        30.04F
MOOSE JAW      MOSUNNY   34  23  64 SW9       30.05F
ESTEVAN        MOSUNNY   19  12  73 W6        30.07
SWIFT CURRENT  SUNNY     32  25  74 S17       29.98F





USA.gov is the U.S. government's official web portal to all federal, state and local government web resources and services.